Retour au catalogue

OPS 4682 DEB

ActifPO
NORAD 38434·DEBRIS·🇺🇸 United States

Lancé Apr 3, 1965 depuis Vandenberg Space Force Base

Loading…

Prochains Passages (prochaines 24 heures)

TLE

FraisSource: Space-Track

Époque: Sep 14, 2026, 06:27 UTC

1 38434U 65027EP  26257.26933229  .00000240  00000-0  80103-3 0  9991
2 38434  90.2488   7.9414 0027628 325.8227  34.1115 12.97452996674066

Suivez OPS 4682 DEB en temps réel avec AllMySat

Download on the App Store